Location: Creslo
(40.3331°N, 78.7592°W)
Time: 20:25:03
(UTC+00:00)

Envisat - Visible Passes

Search period start: 25 November 2020 00:00
Search period end: 05 December 2020 00:00
Orbit: 764 x 766 km, 98.1° (Epoch: 25 November)

Date Brightness Start Highest point End Pass type
(mag) Time Alt. Az. Time Alt. Az. Time Alt. Az.
25 Nov 4.1 10:45:35 10° NNE 10:50:29 47° E 10:55:22 10° S visible
25 Nov 6.1 23:40:50 10° SW 23:43:49 16° W 23:46:49 10° NW visible
26 Nov 5.6 10:09:38 10° NE 10:13:27 21° E 10:17:15 10° SE visible
26 Nov 4.8 23:02:06 10° SSW 23:06:43 35° W 23:11:21 10° NNW visible
27 Nov 3.1 11:10:50 10° NNE 11:15:57 84° ESE 11:21:01 10° SSW visible
27 Nov 3.2 22:24:44 10° S 22:29:48 80° WSW 22:34:55 10° NNW visible
28 Nov 4.6 10:34:21 10° NNE 10:39:03 37° E 10:43:43 10° SSE visible
28 Nov 5.7 23:28:39 10° SW 23:32:20 20° W 23:36:00 10° NW visible
29 Nov 5.9 09:58:46 10° NE 10:01:58 17° E 10:05:08 10° SE visible
29 Nov 3.1 11:36:21 10° N 11:41:19 55° WNW 11:46:15 10° SSW visible
29 Nov 4.3 22:50:27 10° S 22:55:16 44° W 23:00:08 10° NNW visible
30 Nov 3.4 10:59:29 10° NNE 11:04:33 66° E 11:09:35 10° S visible
30 Nov 3.0 22:13:21 10° SSE 22:18:25 82° ENE 22:23:32 10° N visible
30 Nov 6.4 23:56:50 10° WSW 23:58:02 11° W 23:59:14 10° WNW visible
01 Dec 5.0 10:23:12 10° NE 10:27:36 29° E 10:31:59 10° SSE visible
01 Dec 5.4 23:16:41 10° SSW 23:20:50 25° W 23:25:01 10° NW visible
02 Dec 6.2 09:48:13 10° ENE 09:50:27 13° E 09:52:40 10° ESE visible
02 Dec 2.9 11:24:53 10° N 11:29:57 71° WNW 11:35:00 10° SSW visible
02 Dec 3.8 22:38:52 10° S 22:43:51 57° W 22:48:52 10° NNW visible
03 Dec 3.9 10:48:10 10° NNE 10:53:08 51° E 10:58:04 10° S visible
03 Dec 6.1 23:43:50 10° WSW 23:46:30 14° W 23:49:11 10° WNW visible
04 Dec 5.4 10:12:08 10° NE 10:16:08 23° E 10:20:06 10° SE visible
04 Dec 3.4 11:50:32 10° N 11:55:16 40° WNW 11:59:59 10° SW visible
04 Dec 4.9 23:04:52 10° SSW 23:09:23 32° W 23:13:54 10° NNW visible
